Flag for Germany Weather past 2 weeks in Nürtingen, Baden-Württemberg, Germany

Now
45 °F

Passing clouds.


Feels Like: 45 °F
Forecast: 36 / 55 °F
Wind: 2 mph from South

Location: Stuttgart-Echterdingen

Current Time: Oct 23, 2014 at 10:46:45 PM

Latest Report: Oct 23, 2014 at 10:20 PM


Visibility: N/A

Pressure: 30.24 "Hg

Humidity: 87%

Dew point: 41 °F

Location of NürtingenLocation

Historic Weather in Nürtingen — Graph

°F

Nürtingen temperature yesterday

Maximum temperature yesterday: 46 °F (at 12:20 AM)
Minimum temperature yesterday: 43 °F (at 4:20 AM)
Average temperature yesterday: 44 °F

Past Weeks' High & Low Weather Summary

 TemperatureHumidityPressure
High79 °F (Oct 9, 2:20 PM)100% (Oct 10, 7:50 AM)30.27 "Hg (Oct 10, 7:50 AM)
Low43 °F (Oct 18, 7:50 AM)32% (Oct 9, 3:50 PM)29.65 "Hg (Oct 21, 6:20 PM)
Average57 °F85%29.97 "Hg
* Reported Oct 8 9:20 PM — Oct 23 9:50 PM, Nürtingen, Weather by CustomWeather, © 2014

Note: Actual official high and low records may vary slightly from our data, if they occured in-between our weather recording intervals... More about our weather records

Advertising

Nürtingen weather history for previous 24 hours

 ConditionsComfort  
Time TempWeatherWind HumidityBarometerVisibility
9:50 PM
Oct 23
46 °FPassing clouds.1 mph82%30.24 "HgN/A
9:20 PM45 °FPassing clouds.2 mph87%30.24 "HgN/A
8:50 PM46 °FPassing clouds.5 mph82%30.24 "HgN/A
8:20 PM46 °FPassing clouds.6 mph82%30.24 "HgN/A
7:50 PM48 °FPassing clouds.5 mph82%30.24 "HgN/A
7:20 PM48 °FPassing clouds.2 mph82%30.24 "HgN/A
6:50 PM50 °FPartly sunny.2 mph76%30.24 "HgN/A
6:20 PM50 °FPartly sunny.5 mph76%30.24 "HgN/A
5:50 PM50 °FPartly sunny.7 mph76%30.24 "HgN/A
5:20 PM50 °FPartly sunny.8 mph71%30.24 "HgN/A
4:50 PM50 °FPartly sunny.12 mph71%30.24 "HgN/A
4:20 PM50 °FPartly sunny.9 mph71%30.24 "HgN/A
3:50 PM50 °FScattered clouds.10 mph71%30.24 "HgN/A
3:20 PM50 °FPartly sunny.8 mph71%30.24 "HgN/A
2:50 PM50 °FPartly sunny.9 mph71%30.24 "HgN/A
2:20 PM52 °FScattered clouds.10 mph67%30.24 "HgN/A
1:50 PM50 °FScattered clouds.10 mph67%30.24 "HgN/A
1:20 PM52 °FBroken clouds.10 mph72%30.24 "HgN/A
12:50 PM50 °FScattered clouds.7 mph67%30.24 "HgN/A
12:20 PM50 °FScattered clouds.9 mph76%30.27 "HgN/A
11:50 AM48 °FBroken clouds.9 mph76%30.27 "HgN/A
11:20 AM48 °FPartly sunny.6 mph82%30.27 "HgN/A
10:50 AM46 °FBroken clouds.5 mph82%30.27 "HgN/A
10:20 AM46 °FPartly sunny.5 mph82%30.24 "HgN/A
9:50 AM46 °FPartly sunny.7 mph82%30.24 "HgN/A
9:20 AM46 °FPartly sunny.8 mph82%30.24 "HgN/A
8:50 AM46 °FPassing clouds.7 mph76%30.24 "HgN/A
8:20 AM46 °FPassing clouds.8 mph76%30.21 "HgN/A
7:50 AM46 °FPassing clouds.12 mph76%30.21 "HgN/A
7:20 AM46 °FPassing clouds.8 mph76%30.21 "HgN/A
6:50 AM46 °FPassing clouds.14 mph76%30.18 "HgN/A
6:20 AM46 °FOvercast.15 mph82%30.18 "HgN/A
5:50 AM46 °FOvercast.13 mph82%30.18 "HgN/A
5:20 AM45 °FPassing clouds.13 mph87%30.18 "HgN/A
4:50 AM46 °FPassing clouds.18 mph76%30.18 "HgN/A
4:20 AM46 °FPartly cloudy.18 mph76%30.18 "HgN/A
3:50 AM45 °FPartly cloudy.14 mph87%30.18 "HgN/A
3:20 AM45 °FPassing clouds.13 mph87%30.15 "HgN/A
2:50 AM45 °FPassing clouds.15 mph87%30.15 "HgN/A
2:20 AM45 °FPartly cloudy.15 mph87%30.15 "HgN/A
1:50 AM45 °FPassing clouds.14 mph87%30.15 "HgN/A
1:20 AM45 °FPassing clouds.13 mph87%30.15 "HgN/A
12:50 AM45 °FSprinkles. Passing clouds.14 mph87%30.12 "HgN/A
12:20 AM45 °FPassing clouds.16 mph87%30.12 "HgN/A
11:50 PM
Oct 22
45 °FPassing clouds.21 mph87%30.12 "HgN/A
11:20 PM45 °FPassing clouds.15 mph87%30.12 "HgN/A
10:50 PM46 °FPartly cloudy.17 mph82%30.12 "HgN/A
10:20 PM45 °FPassing clouds.20 mph87%30.12 "HgN/A
Weather by CustomWeather, © 2014

See weather overviewHow to use our weather pages